Regional Weather Roundup
Issued by NWS Sioux Falls, SD

Home | Current Version | Previous Version | Graphics & Text | Print | Product List | Glossary Off
Versions: 1 2 3 4 5 6 7 8 9 10 11 12 13 14 15 16 17 18 19 20 21 22 23 24 25 26 27 28 29 30 31 32 33 34 35 36 37 38 39 40 41 42 43 44 45 46 47 48 49 50

000
ASUS43 KFSD 251902
RWRFSD

WEATHER ROUNDUP FOR SE SOUTH DAKOTA/SW MINNESOTA/NW IOWA
NATIONAL WEATHER SERVICE SIOUX FALLS SD
100 PM CST TUE NOV 25 2014

NOTE: "FAIR" INDICATES FEW OR NO CLOUDS BELOW 12,000 FEET WITH NO
SIGNIFICANT WEATHER AND OR OBSTRUCTIONS TO VISIBILITY.


SDZ038>040-050-052>070-252000-
SOUTHEAST SOUTH DAKOTA

CITY           SKY/WX    TMP DP  RH WIND       PRES   REMARKS
CHAMBERLAIN    CLOUDY    38  26  63 SE12      29.83F
HURON          PTSUNNY   34  25  69 S10       29.89F WCI  26
MADISON        MOCLDY    32  19  59 S9        29.92F WCI  24
MITCHELL       PTSUNNY   37  26  64 S9        29.91F
SIOUX FALLS    CLOUDY    35  18  49 S12       29.95F WCI  27
WINNER         CLOUDY    39  25  57 S14       29.81F
YANKTON        MOSUNNY   39  27  60 S9        29.94F
$$

MNZ071-072-080-081-089-090-097-098-252000-
SOUTHWEST MINNESOTA

CITY           SKY/WX    TMP DP  RH WIND       PRES   REMARKS
FAIRMONT       PTSUNNY   28   5  37 S7        30.03F WCI  21
JACKSON        CLOUDY    32  12  43 S9        30.00F WCI  24
LUVERNE        MOSUNNY   34  18  51 S12       29.97F WCI  25
MARSHALL       PTSUNNY   34  16  47 S10       29.96F WCI  26
MONTEVIDEO     CLOUDY    27  16  63 S7        29.99S WCI  19
PIPESTONE      MOSUNNY   30  18  59 S9        29.93F WCI  22
REDWOOD FALLS  CLOUDY    28  11  48 SE13      29.99F WCI  17
TRACY          PTSUNNY   32  17  53 SW8       29.96F WCI  25
WINDOM         PTSUNNY   28  12  50 S9        29.99F WCI  20
WORTHINGTON    MOSUNNY   30  14  51 S14       29.98F WCI  20
$$

IAZ001>003-012>014-020>022-031-032-NEZ013-014-SDZ071-252000-
NORTHWEST IOWA

CITY           SKY/WX    TMP DP  RH WIND       PRES   REMARKS
CHEROKEE       SUNNY     34  12  39 SW10      30.01F WCI  26
DENISON        SUNNY     36  12  38 SW10      30.02F
ESTHERVILLE    PTSUNNY   31   8  38 S9G16     30.01F WCI  23
LE MARS        SUNNY     36  18  48 S10       30.00F
ORANGE CITY    MOSUNNY   36  14  41 S13       29.98F
SHELDON        MOSUNNY   34  14  44 S14       29.97F WCI  24
SIOUX CITY     MOSUNNY   40  21  46 S12       30.01F
SPENCER        MOSUNNY   33  13  43 SW10      30.02F WCI  25
STORM LAKE     MOSUNNY   34  12  40 SW10      30.02F WCI  26
$$

ABBREVIATIONS USED IN REMARKS
   TC - TEMPERATURE IN CELSIUS
  WCI - WIND CHILL INDEX
   HX - HEAT INDEX
  VSB - VISIBILITY



USA.gov is the U.S. government's official web portal to all federal, state and local government web resources and services.